1491084001.25,4814,14.69,73782.3,-1.55,-32.75,-32.97,0,*64
1491084002.51,4815,14.69,73780.8,-1.53,-32.79,-32.91,0,*69
1491084003.77,4816,14.69,73784.0,-1.53,-32.69,-32.85,0,*6E
1491084005.02,4817,14.69,73782.5,-1.53,-32.85,-33.21,0,*62
1491084006.26,4818,14.69,73784.0,-1.53,-32.69,-32.91,0,*65
1491084007.54,4819,14.69,73790.3,-1.53,-32.63,-32.85,0,*6B
1491084008.77,4820,14.69,73792.3,-1.53,-33.03,-33.21,0,*69
1491084010.03,4821,14.69,73798.5,-1.55,-33.27,-33.43,0,*6C
1491084011.28,4822,14.69,73796.3,-1.55,-33.27,-33.43,0,*6F
1491084012.52,4823,14.69,73790.5,-1.59,-33.15,-33.27,0,*61
1491084013.78,4824,14.69,73790.0,-1.59,-33.09,-33.31,0,*6C
1491084015.04,4825,14.69,73790.3,-1.59,-32.85,-33.09,0,*63
1491084016.27,4826,14.69,73786.0,-1.59,-32.91,-33.09,0,*65
1491084017.49,4827,14.69,73782.3,-1.55,-32.91,-32.97,0,*6E
1491084018.72,4828,14.69,73786.8,-1.55,-32.91,-33.09,0,*67
1491084019.95,4829,14.69,73784.5,-1.59,-33.15,-33.27,0,*6B
1491084021.15,4830,14.69,73786.5,-1.55,-32.91,-33.15,0,*63
1491084022.38,4831,14.69,73776.0,-1.59,-33.09,-33.15,0,*6E
1491084023.64,4832,14.69,73768.5,-1.59,-32.85,-32.97,0,*63
1491084024.87,4833,14.69,73764.3,-1.59,-32.75,-32.91,0,*6B
1491084026.13,4834,14.69,73766.0,-1.55,-32.85,-33.09,0,*6F
1491084027.39,4835,14.69,73768.5,-1.59,-32.85,-32.97,0,*64
1491084028.64,4836,14.69,73768.0,-1.61,-32.97,-33.15,0,*64
1491084029.89,4837,14.69,73766.5,-1.59,-32.97,-32.97,0,*65
1491084031.15,4838,14.69,73766.5,-1.59,-32.85,-32.97,0,*69
1491084032.38,4839,14.69,73764.5,-1.55,-32.57,-32.75,0,*67
1491084033.6,4840,14.69,73762.5,-1.59,-32.69,-32.91,0,*62
1491084034.84,4841,14.69,73758.8,-1.59,-32.69,-32.75,0,*69
1491084036.09,4842,14.69,73756.5,-1.59,-32.69,-32.75,0,*6A
1491084037.33,4843,14.69,73758.5,-1.59,-32.75,-32.91,0,*6C
1491084038.57,4844,14.69,73756.0,-1.59,-32.69,-32.85,0,*63
1491084039.8,4845,14.69,73760.8,-1.59,-32.75,-32.91,0,*6A
1491084041.04,4846,14.69,73768.8,-1.59,-32.75,-32.91,0,*69
1491084042.28,4847,14.69,73764.5,-1.59,-32.75,-32.91,0,*68
1491084043.49,4848,14.69,73768.0,-1.55,-32.39,-32.69,0,*64
1491084044.69,4849,14.69,73774.5,-1.59,-32.35,-32.57,0,*68
1491084045.93,4850,14.69,73766.8,-1.59,-32.57,-32.75,0,*64
1491084047.13,4851,14.69,73766.5,-1.55,-32.39,-32.69,0,*6C
1491084048.36,4852,14.69,73764.3,-1.55,-32.19,-32.23,0,*63
1491084049.59,4853,14.69,73768.8,-1.55,-32.19,-32.23,0,*62
1491084050.82,4854,14.69,73768.0,-1.55,-32.19,-32.35,0,*62
1491084052.02,4855,14.69,73768.0,-1.59,-32.39,-32.57,0,*69
1491084053.23,4856,14.69,73768.3,-1.55,-32.51,-32.69,0,*65
1491084054.43,4857,14.69,73772.5,-1.55,-32.39,-32.57,0,*67
1491084055.63,4858,14.69,73772.8,-1.55,-32.35,-32.39,0,*6C
1491084056.84,4859,14.69,73770.8,-1.59,-32.35,-32.39,0,*61
1491084058.06,4860,14.69,73772.8,-1.53,-32.35,-32.51,0,*6F
1491084059.31,4861,14.69,73766.0,-1.53,-32.35,-32.63,0,*6F
1491084060.57,4862,14.69,73764.8,-1.53,-32.79,-32.91,0,*69
1491084061.83,4863,14.69,73768.8,-1.55,-32.97,-33.27,0,*62
1491084063.08,4864,14.69,73770.5,-1.53,-32.85,-33.03,0,*66
1491084064.34,4865,14.69,73770.3,-1.53,-32.85,-32.91,0,*6D
1491084065.59,4866,14.69,73770.5,-1.53,-32.79,-33.03,0,*67
1491084066.85,4867,14.69,73766.8,-1.55,-32.79,-32.97,0,*6C
1491084068.1,4868,14.69,73766.5,-1.53,-32.79,-33.03,0,*69
1491084069.34,4869,14.69,73764.3,-1.55,-32.57,-32.85,0,*6D
1491084070.57,4870,14.69,73762.3,-1.55,-32.57,-32.85,0,*65
1491084071.8,4871,14.69,73768.8,-1.55,-32.91,-33.27,0,*67
1491084073.07,4872,14.69,73774.3,-1.59,-33.09,-33.27,0,*68
1491084074.32,4873,14.69,73778.0,-1.55,-32.97,-33.27,0,*63
1491084075.58,4874,14.69,73780.3,-1.55,-33.09,-33.43,0,*60
1491084076.82,4875,14.69,73780.5,-1.59,-33.15,-33.43,0,*60
1491084078.05,4876,14.69,73784.5,-1.59,-33.09,-33.15,0,*6D
1491084079.31,4877,14.69,73780.5,-1.59,-33.09,-33.27,0,*6D
1491084080.57,4878,14.69,73786.8,-1.59,-33.09,-33.27,0,*62
1491084081.8,4879,14.69,73784.0,-1.59,-32.97,-33.15,0,*64
1491084083.06,4880,14.69,73782.5,-1.59,-33.09,-33.31,0,*62
1491084084.32,4881,14.69,73786.8,-1.59,-32.97,-33.31,0,*65
1491084085.58,4882,14.69,73782.0,-1.55,-32.75,-33.09,0,*6D
1491084086.83,4883,14.69,73786.5,-1.61,-32.97,-33.15,0,*6A
1491084088.07,4884,14.69,73790.8,-1.61,-32.57,-32.91,0,*6C
1491084089.35,4885,14.69,73778.0,-1.61,-32.45,-32.75,0,*64
1491084090.61,4886,14.69,73778.5,-1.61,-32.39,-32.63,0,*6B
1491084091.89,4887,14.69,73776.0,-1.61,-32.45,-32.79,0,*6A
1491084093.15,4888,14.69,73776.8,-1.61,-32.63,-32.91,0,*67
1491084094.41,4889,14.69,73780.5,-1.61,-32.79,-33.03,0,*67
1491084095.66,4890,14.69,73782.5,-1.59,-32.85,-32.97,0,*6B
1491084096.92,4891,14.69,73782.8,-1.61,-32.79,-33.03,0,*6E
1491084098.18,4892,14.69,73774.8,-1.61,-32.57,-32.79,0,*6D
1491084099.44,4893,14.69,73770.8,-1.61,-32.57,-32.79,0,*6C
1491084100.72,4894,14.69,73764.0,-1.61,-32.45,-32.63,0,*63
1491084101.95,4895,14.69,73766.3,-1.59,-32.57,-32.97,0,*61
1491084103.19,4896,14.69,73770.5,-1.59,-32.51,-32.75,0,*68
1491084104.39,4897,14.69,73774.0,-1.55,-32.35,-32.51,0,*61
1491084105.59,4898,14.69,73774.3,-1.59,-32.35,-32.57,0,*64
1491084106.83,4899,14.69,73770.5,-1.59,-32.57,-32.85,0,*6E
1491084108.06,4900,14.69,73770.5,-1.55,-32.57,-32.85,0,*63
1491084109.3,4901,14.69,73766.5,-1.55,-32.69,-32.85,0,*6F
1491084110.54,4902,14.69,73764.0,-1.59,-32.51,-32.75,0,*64
1491084111.75,4903,14.69,73768.5,-1.59,-32.39,-32.69,0,*66
1491084112.96,4904,14.69,73768.5,-1.59,-32.39,-32.69,0,*61
1491084114.22,4905,14.69,73768.8,-1.59,-32.75,-33.09,0,*6F
1491084115.48,4906,14.69,73774.5,-1.59,-32.75,-32.97,0,*6A
1491084116.74,4907,14.69,73772.8,-1.59,-32.85,-32.97,0,*64
1491084117.95,4908,14.69,73772.3,-1.59,-32.51,-32.69,0,*63
1491084119.16,4909,14.69,73774.5,-1.59,-32.39,-32.69,0,*6C
1491084120.4,4910,14.69,73774.3,-1.59,-32.51,-32.85,0,*68
1491084121.63,4911,14.69,73776.5,-1.55,-32.51,-32.75,0,*6A
1491084122.84,4912,14.69,73778.0,-1.59,-32.39,-32.57,0,*6B
1491084124.04,4913,14.69,73774.5,-1.55,-32.35,-32.51,0,*6C
1491084125.23,4914,14.69,73780.0,-1.55,-32.35,-32.57,0,*6D
1491084126.44,4915,14.69,73776.5,-1.59,-32.35,-32.39,0,*68
1491084127.67,4916,14.69,73780.5,-1.59,-31.85,-32.01,0,*68
1491084128.9,4917,14.69,73786.0,-1.55,-31.85,-32.01,0,*65
1491084130.13,4918,14.69,73786.8,-1.55,-32.19,-32.23,0,*6C
1491084131.34,4919,14.69,73782.3,-1.55,-32.23,-32.51,0,*61
1491084132.61,4920,14.63,73774.5,-1.53,-32.29,-32.63,0,*66
1491084133.84,4921,14.69,73774.0,-1.53,-32.69,-32.91,0,*6E
1491084135.13,4922,14.69,73768.8,-1.53,-32.85,-33.27,0,*63
1491084136.36,4923,14.69,73768.0,-1.51,-33.03,-33.27,0,*6F
1491084137.56,4924,14.69,73774.8,-1.59,-32.91,-33.15,0,*6B
1491084138.82,4925,14.63,73772.8,-1.59,-32.97,-33.27,0,*6D
1491084140.08,4926,14.69,73782.3,-1.59,-32.97,-33.27,0,*6E
1491084141.31,4927,14.69,73778.8,-1.55,-32.97,-33.15,0,*62
1491084142.53,4928,14.69,73780.3,-1.55,-32.97,-33.15,0,*6D
1491084143.76,4929,14.69,73780.5,-1.55,-32.85,-33.15,0,*6F
1491084144.99,4930,14.69,73778.0,-1.59,-32.91,-33.09,0,*63
1491084146.2,4931,14.69,73772.8,-1.55,-32.69,-32.91,0,*69
1491084147.44,4932,14.63,73768.8,-1.55,-32.57,-32.85,0,*62
1491084148.65,4933,14.69,73772.0,-1.59,-32.69,-32.91,0,*67
1491084149.91,4934,14.69,73776.5,-1.55,-32.85,-33.09,0,*6E
1491084151.14,4935,14.69,73778.8,-1.59,-32.97,-33.15,0,*6D
1491084152.4,4936,14.63,73780.0,-1.55,-33.09,-33.27,0,*65
1491084153.66,4937,14.69,73786.8,-1.59,-32.85,-33.09,0,*61
1491084154.89,4938,14.69,73778.8,-1.59,-32.97,-33.15,0,*60
1491084156.14,4939,14.69,73778.5,-1.59,-32.97,-33.09,0,*6C
1491084157.4,4940,14.69,73776.5,-1.59,-32.85,-32.97,0,*67
1491084158.63,4941,14.63,73774.8,-1.59,-32.91,-32.97,0,*63
1491084159.88,4942,14.69,73772.8,-1.59,-32.85,-32.97,0,*65
1491084161.14,4943,14.69,73776.8,-1.61,-32.79,-33.03,0,*60
1491084162.37,4944,14.69,73774.3,-1.61,-32.91,-33.03,0,*61
1491084163.65,4945,14.69,73780.5,-1.61,-32.79,-32.97,0,*6A
1491084164.9,4946,14.69,73772.0,-1.61,-32.97,-33.03,0,*65
1491084166.13,4947,14.69,73774.5,-1.61,-32.91,-33.03,0,*62
1491084167.39,4948,14.69,73772.8,-1.61,-32.79,-33.03,0,*6B
1491084168.67,4949,14.69,73774.3,-1.61,-32.75,-32.97,0,*6A
1491084169.9,4950,14.69,73774.5,-1.61,-32.39,-32.57,0,*66
1491084171.09,4951,14.69,73774.8,-1.59,-32.35,-32.57,0,*60
1491084172.3,4952,14.69,73770.8,-1.59,-32.23,-32.35,0,*60
1491084173.49,4953,14.69,73772.5,-1.59,-32.23,-32.57,0,*65
1491084174.73,4954,14.63,73774.0,-1.59,-32.51,-32.75,0,*67
1491084175.97,4955,14.69,73778.3,-1.59,-32.57,-32.85,0,*6F
1491084177.21,4956,14.63,73778.3,-1.59,-32.51,-32.75,0,*65
1491084178.44,4957,14.69,73772.8,-1.59,-32.19,-32.39,0,*60
1491084179.66,4958,14.69,73774.8,-1.59,-32.51,-32.69,0,*66
1491084180.89,4959,14.69,73778.3,-1.55,-32.51,-32.85,0,*69
1491084182.08,4960,14.69,73772.8,-1.55,-32.35,-32.57,0,*6E
1491084183.32,4961,14.69,73778.0,-1.55,-32.39,-32.75,0,*63
1491084184.55,4962,14.69,73770.8,-1.55,-32.51,-32.75,0,*6E
1491084185.76,4963,14.63,73768.5,-1.55,-32.57,-32.91,0,*63
1491084187.02,4964,14.63,73770.3,-1.55,-32.75,-32.97,0,*62
1491084188.23,4965,14.69,73776.0,-1.55,-32.69,-32.91,0,*68
1491084189.44,4966,14.69,73776.3,-1.55,-32.69,-32.91,0,*6B
1491084190.66,4967,14.69,73776.0,-1.59,-32.69,-32.91,0,*66
1491084191.89,4968,14.63,73772.8,-1.55,-32.75,-32.91,0,*68
1491084193.09,4969,14.69,73776.8,-1.55,-32.35,-32.69,0,*6A
1491084194.28,4970,14.63,73772.0,-1.55,-32.35,-32.57,0,*6F
1491084195.48,4971,14.63,73774.0,-1.55,-32.35,-32.57,0,*6E
1491084196.69,4972,14.69,73772.5,-1.55,-32.23,-32.51,0,*6C
1491084197.88,4973,14.69,73776.0,-1.55,-32.39,-32.57,0,*60
1491084199.09,4974,14.69,73774.5,-1.55,-32.51,-32.69,0,*64
1491084200.33,4975,14.63,73772.3,-1.53,-32.51,-32.69,0,*63
1491084201.61,4976,14.63,73774.8,-1.53,-32.45,-32.85,0,*67
1491084202.86,4977,14.69,73778.5,-1.53,-32.51,-32.79,0,*60
1491084204.1,4978,14.63,73778.8,-1.55,-32.57,-32.75,0,*63
1491084205.38,4979,14.69,73780.8,-1.53,-32.63,-32.79,0,*6F
1491084206.65,4980,14.63,73778.8,-1.53,-32.45,-32.63,0,*66
1491084207.91,4981,14.63,73782.5,-1.53,-32.51,-32.85,0,*6A
1491084209.15,4982,14.69,73782.8,-1.51,-32.69,-32.85,0,*60
1491084210.43,4983,14.69,73780.3,-1.53,-32.45,-32.79,0,*6E
1491084211.68,4984,14.63,73780.3,-1.53,-32.51,-32.79,0,*6C
1491084212.96,4985,14.69,73786.0,-1.53,-32.45,-32.79,0,*68
1491084214.24,4986,14.69,73788.8,-1.53,-32.45,-32.79,0,*6B
1491084215.49,4987,14.69,73784.5,-1.51,-32.63,-32.85,0,*6F
1491084216.77,4988,14.69,73786.8,-1.53,-32.45,-32.79,0,*65
1491084218.03,4989,14.63,73778.0,-1.53,-32.51,-32.79,0,*61
1491084219.29,4990,14.63,73776.0,-1.53,-32.51,-32.85,0,*6A
1491084220.54,4991,14.63,73780.5,-1.51,-32.79,-32.85,0,*63
1491084221.8,4992,14.63,73780.3,-1.53,-32.79,-32.91,0,*67
1491084223.06,4993,14.69,73786.8,-1.53,-32.85,-33.03,0,*6F
1491084224.29,4994,14.63,73786.3,-1.51,-32.51,-32.79,0,*6F
1491084225.56,4995,14.69,73782.0,-1.53,-32.19,-32.45,0,*6F
1491084226.76,4996,14.63,73778.3,-1.51,-32.13,-32.35,0,*63
1491084227.99,4997,14.63,73786.0,-1.51,-32.29,-32.51,0,*69
1491084229.22,4998,14.69,73794.0,-1.51,-32.79,-32.91,0,*6F
1491084230.42,4999,14.69,73790.0,-1.51,-32.91,-33.21,0,*62
1491084231.65,5000,14.63,73782.0,-1.53,-33.03,-33.21,0,*62
1491084232.87,5001,14.69,73784.5,-1.51,-32.85,-33.03,0,*6E
1491084234.15,5002,14.63,73780.0,-1.53,-32.29,-32.63,0,*6E
1491084235.4,5003,14.63,73782.3,-1.53,-32.45,-32.69,0,*6F
1491084236.6,5004,14.63,73784.0,-1.51,-33.03,-33.21,0,*64
1491084237.86,5005,14.69,73786.0,-1.53,-33.03,-33.27,0,*61
1491084239.12,5006,14.63,73784.8,-1.53,-32.79,-33.21,0,*68
1491084240.37,5007,14.63,73784.0,-1.53,-32.79,-33.03,0,*69
1491084241.63,5008,14.63,73780.0,-1.53,-32.79,-32.91,0,*6C
1491084242.89,5009,14.69,73788.8,-1.53,-32.79,-33.03,0,*67
1491084244.14,5010,14.69,73786.0,-1.53,-32.79,-32.91,0,*65
1491084245.41,5011,14.63,73780.8,-1.53,-32.69,-32.85,0,*60
1491084246.64,5012,14.63,73780.8,-1.53,-32.69,-32.91,0,*66
1491084247.89,5013,14.63,73784.8,-1.53,-32.85,-33.03,0,*6F
1491084249.12,5014,14.63,73782.5,-1.51,-32.85,-32.91,0,*60
1491084250.38,5015,14.63,73786.5,-1.53,-32.79,-32.91,0,*60
1491084251.64,5016,14.63,73784.5,-1.53,-32.69,-32.85,0,*67
1491084252.9,5017,14.63,73784.0,-1.51,-32.45,-32.79,0,*69
1491084254.18,5018,14.63,73780.5,-1.53,-32.63,-32.85,0,*63
1491084255.41,5019,14.63,73782.5,-1.51,-32.51,-32.79,0,*62
1491084256.63,5020,14.63,73782.8,-1.53,-32.35,-32.69,0,*69
1491084257.89,5021,14.63,73792.5,-1.53,-32.79,-32.91,0,*67
1491084259.17,5022,14.63,73794.5,-1.53,-32.63,-32.85,0,*6A
1491084260.43,5023,14.63,73788.0,-1.53,-32.51,-32.79,0,*69
1491084261.68,5024,14.63,73790.8,-1.51,-32.63,-32.85,0,*6E
1491084262.94,5025,14.63,73788.0,-1.53,-33.03,-33.43,0,*61
1491084264.17,5026,14.69,73792.0,-1.53,-33.03,-33.21,0,*66
1491084265.39,5027,14.63,73788.3,-1.51,-32.85,-33.03,0,*6A
1491084266.64,5028,14.63,73788.3,-1.53,-32.91,-33.09,0,*68
1491084267.9,5029,14.63,73788.8,-1.55,-32.97,-33.09,0,*69
1491084269.13,5030,14.63,73792.5,-1.51,-32.79,-33.03,0,*6F
1491084270.38,5031,14.63,73792.5,-1.53,-32.85,-33.03,0,*6F
1491084271.62,5032,14.63,73790.5,-1.53,-32.69,-32.91,0,*64
1491084272.9,5033,14.63,73788.3,-1.53,-32.45,-32.79,0,*6D
1491084274.13,5034,14.63,73790.5,-1.53,-32.51,-32.69,0,*6E
1491084275.41,5035,14.63,73790.0,-1.53,-32.63,-32.85,0,*6C
1491084276.66,5036,14.63,73792.8,-1.53,-32.85,-33.03,0,*68
1491084277.92,5037,14.63,73788.0,-1.53,-32.79,-32.91,0,*60
1491084279.18,5038,14.63,73790.5,-1.53,-32.79,-32.91,0,*6F
1491084280.44,5039,14.63,73792.0,-1.53,-32.69,-32.79,0,*69
1491084281.66,5040,14.69,73798.8,-1.53,-32.91,-33.03,0,*6C
1491084282.91,5041,14.63,73792.3,-1.53,-32.91,-33.09,0,*67
1491084284.14,5042,14.69,73798.0,-1.55,-33.09,-33.15,0,*6F
1491084285.37,5043,14.69,73798.8,-1.53,-32.91,-33.03,0,*6F
1491084286.6,5044,14.63,73800.3,-1.55,-32.75,-32.91,0,*6E
1491084287.84,5045,14.63,73798.0,-1.55,-32.51,-32.75,0,*63
1491084289.05,5046,14.63,73802.5,-1.55,-32.57,-32.91,0,*6C
1491084290.26,5047,14.63,73794.8,-1.55,-32.69,-32.91,0,*60
1491084291.46,5048,14.63,73792.0,-1.55,-32.35,-32.69,0,*61
1491084292.65,5049,14.63,73790.5,-1.55,-32.35,-32.57,0,*6D
1491084293.86,5050,14.63,73788.3,-1.55,-32.57,-32.69,0,*6C
1491084295.07,5051,14.63,73794.0,-1.55,-32.57,-32.91,0,*6A
1491084296.29,5052,14.63,73786.5,-1.55,-32.69,-32.91,0,*64
1491084297.54,5053,14.63,73788.3,-1.53,-32.45,-32.69,0,*6A
1491084298.77,5054,14.63,73784.5,-1.53,-32.51,-32.69,0,*68
1491084300.04,5055,14.63,73786.3,-1.53,-32.69,-32.85,0,*60
1491084301.31,5056,14.63,73790.8,-1.53,-32.45,-32.79,0,*6E
1491084302.58,5057,14.63,73794.0,-1.53,-32.69,-32.79,0,*61
1491084303.86,5058,14.63,73794.0,-1.53,-32.63,-32.85,0,*67
1491084305.12,5059,14.63,73790.8,-1.53,-32.69,-32.85,0,*6C
1491084306.38,5060,14.63,73784.3,-1.53,-32.69,-32.85,0,*66
1491084307.63,5061,14.63,73784.0,-1.53,-32.85,-33.03,0,*6A
1491084308.89,5062,14.63,73782.5,-1.53,-32.63,-32.91,0,*6B
1491084310.14,5063,14.63,73776.3,-1.55,-32.85,-32.97,0,*62
1491084311.4,5064,14.63,73778.8,-1.53,-32.85,-33.03,0,*6F
1491084312.63,5065,14.63,73784.5,-1.53,-32.69,-32.91,0,*66
1491084313.85,5066,14.63,73784.3,-1.55,-32.69,-32.91,0,*63
1491084315.08,5067,14.63,73788.8,-1.55,-32.75,-32.91,0,*6F
1491084316.33,5068,14.69,73794.0,-1.55,-32.75,-32.97,0,*66
1491084317.59,5069,14.63,73794.8,-1.53,-32.79,-32.91,0,*6B
1491084318.85,5070,14.63,73794.0,-1.53,-32.63,-32.91,0,*68
1491084320.1,5071,14.63,73794.8,-1.55,-32.85,-32.97,0,*61
1491084321.31,5072,14.63,73788.8,-1.59,-32.57,-32.91,0,*67
1491084322.55,5073,14.63,73772.5,-1.59,-32.57,-32.85,0,*63
1491084323.78,5074,14.63,73772.8,-1.55,-32.75,-32.91,0,*6D
1491084324.99,5075,14.63,73780.3,-1.55,-32.57,-32.69,0,*6B
1491084326.28,5076,14.63,73778.0,-1.53,-31.85,-31.95,0,*62
1491084327.56,5077,14.63,73780.8,-1.53,-31.61,-31.85,0,*68
1491084328.81,5078,14.63,73776.3,-1.53,-31.85,-32.01,0,*62
1491084330.07,5079,14.63,73776.8,-1.51,-31.85,-31.95,0,*6F
1491084331.33,5080,14.63,73768.8,-1.53,-31.79,-31.95,0,*68
1491084332.55,5081,14.63,73764.5,-1.51,-31.85,-32.01,0,*66
1491084333.8,5082,14.63,73762.3,-1.51,-32.19,-32.29,0,*69
1491084335.0,5083,14.63,73762.3,-1.51,-32.35,-32.51,0,*69
1491084336.2,5084,14.63,73764.0,-1.51,-32.35,-32.69,0,*65
1491084337.41,5085,14.63,73766.8,-1.51,-32.51,-32.69,0,*66
1491084338.64,5086,14.63,73770.5,-1.51,-32.45,-32.69,0,*60
1491084339.92,5087,14.63,73768.8,-1.49,-32.45,-32.75,0,*65
1491084341.14,5088,14.63,73774.8,-1.51,-32.51,-32.63,0,*61
1491084342.41,5089,14.63,73772.3,-1.49,-32.29,-32.45,0,*62
1491084343.64,5090,14.63,73774.5,-1.49,-32.23,-32.39,0,*6B
1491084344.88,5091,14.63,73772.0,-1.51,-32.29,-32.45,0,*62
1491084346.13,5092,14.63,73764.8,-1.51,-32.45,-32.63,0,*6F
1491084347.4,5093,14.63,73770.5,-1.49,-32.29,-32.63,0,*6D
1491084348.63,5094,14.63,73768.0,-1.47,-32.23,-32.39,0,*61
1491084349.9,5095,14.63,73778.8,-1.49,-32.45,-32.63,0,*61
1491084351.18,5096,14.63,73782.3,-1.47,-32.75,-32.97,0,*64
1491084352.44,5097,14.63,73768.3,-1.49,-32.57,-32.79,0,*6B
1491084353.69,5098,14.63,73766.8,-1.49,-32.39,-32.75,0,*60
1491084354.96,5099,14.63,73760.0,-1.49,-32.29,-32.63,0,*67
1491084356.24,5100,14.63,73744.8,-1.49,-32.45,-32.79,0,*67
1491084357.51,5101,14.63,73774.0,-1.49,-32.45,-32.79,0,*66
1491084358.78,5102,14.63,73770.0,-1.47,-32.39,-32.75,0,*6C
1491084359.99,5103,14.63,73770.5,-1.49,-32.23,-32.57,0,*68
1491084361.24,5104,14.63,73764.8,-1.49,-32.39,-32.79,0,*68
1491084362.52,5105,14.63,73762.8,-1.49,-32.63,-32.85,0,*65
1491084363.81,5106,14.63,73770.5,-1.47,-32.79,-32.85,0,*63
1491084365.08,5107,14.63,73772.3,-1.49,-32.45,-32.63,0,*6B
1491084366.32,5108,14.63,73768.8,-1.51,-32.69,-32.85,0,*6B
1491084367.6,5109,14.63,73776.5,-1.49,-32.45,-32.75,0,*62
1491084368.87,5110,14.63,73770.3,-1.49,-32.45,-32.79,0,*66
1491084370.11,5111,14.63,73768.5,-1.49,-32.29,-32.57,0,*61
1491084371.36,5112,14.63,73770.3,-1.49,-32.57,-32.79,0,*67
1491084372.64,5113,14.63,73770.3,-1.49,-32.63,-32.79,0,*61
1491084373.85,5114,14.63,73776.3,-1.51,-32.69,-32.91,0,*63
1491084375.1,5115,14.63,73772.8,-1.49,-32.57,-32.79,0,*60
1491084376.38,5116,14.63,73772.3,-1.49,-32.45,-32.75,0,*6C
1491084377.61,5117,14.63,73778.8,-1.51,-32.51,-32.85,0,*6E
1491084378.87,5118,14.63,73774.3,-1.49,-32.57,-32.79,0,*6D
1491084380.12,5119,14.63,73778.3,-1.49,-32.57,-32.79,0,*6C
1491084381.4,5120,14.63,73774.5,-1.49,-32.63,-32.79,0,*61
1491084382.68,5121,14.63,73780.8,-1.49,-32.45,-32.75,0,*68
1491084383.96,5122,14.63,73774.5,-1.49,-32.45,-32.75,0,*6B
1491084385.24,5123,14.63,73776.0,-1.49,-32.45,-32.75,0,*6A
1491084386.51,5124,14.63,73774.3,-1.49,-32.45,-32.75,0,*6D
1491084387.8,5125,14.63,73774.5,-1.49,-32.75,-32.85,0,*60
1491084389.07,5126,14.63,73774.5,-1.49,-32.45,-32.63,0,*68
1491084390.34,5127,14.63,73782.8,-1.49,-32.45,-32.63,0,*69
1491084391.62,5128,14.63,73786.5,-1.47,-32.79,-32.97,0,*6C
1491084392.9,5129,14.63,73784.3,-1.49,-32.75,-32.97,0,*6F
1491084394.15,5130,14.63,73776.3,-1.49,-32.57,-32.85,0,*64
1491084395.43,5131,14.63,73770.5,-1.49,-32.45,-32.75,0,*69
1491084396.7,5132,14.63,73774.5,-1.49,-32.29,-32.63,0,*67
1491084397.9,5133,14.63,73776.5,-1.51,-32.51,-32.69,0,*6A
1491084399.16,5134,14.63,73780.8,-1.49,-32.39,-32.75,0,*67
1491084400.39,5135,14.63,73780.5,-1.51,-32.51,-32.85,0,*6E
1491084401.67,5136,14.63,73772.8,-1.47,-32.75,-32.97,0,*6F
1491084402.92,5137,14.63,73778.3,-1.47,-32.85,-33.15,0,*6A
1491084404.21,5138,14.63,73776.8,-1.49,-32.75,-32.85,0,*6C
1491084405.48,5139,14.63,73780.3,-1.49,-32.75,-32.97,0,*6E
1491084406.76,5140,14.63,73778.0,-1.49,-32.63,-32.85,0,*64
1491084408.04,5141,14.63,73778.5,-1.49,-32.75,-32.85,0,*62
1491084409.32,5142,14.63,73776.3,-1.49,-32.75,-32.97,0,*62
1491084410.54,5143,14.63,73776.3,-1.51,-32.85,-33.03,0,*69
1491084411.77,5144,14.63,73772.8,-1.51,-33.03,-33.09,0,*6B
1491084413.02,5145,14.63,73772.0,-1.49,-32.97,-33.15,0,*62
1491084414.27,5146,14.63,73774.0,-1.53,-32.91,-33.09,0,*61
1491084415.5,5147,14.63,73774.5,-1.51,-32.85,-33.21,0,*6D
1491084416.74,5148,14.63,73776.0,-1.53,-32.91,-33.09,0,*6F
1491084418.02,5149,14.63,73772.8,-1.53,-32.85,-33.09,0,*6B
1491084419.28,5150,14.63,73774.0,-1.53,-33.03,-33.27,0,*60
1491084420.54,5151,14.63,73772.5,-1.53,-33.03,-33.27,0,*61
1491084421.79,5152,14.63,73774.3,-1.53,-32.91,-33.09,0,*64
1491084423.05,5153,14.63,73772.8,-1.53,-32.79,-32.91,0,*63
1491084424.3,5154,14.63,73778.8,-1.53,-32.79,-32.91,0,*64
1491084425.56,5155,14.63,73778.3,-1.53,-32.79,-32.91,0,*65
1491084426.84,5156,14.63,73772.3,-1.53,-32.45,-32.63,0,*64
1491084428.12,5157,14.63,73772.8,-1.53,-32.63,-32.85,0,*69
1491084429.4,5158,14.63,73782.0,-1.53,-32.85,-32.85,0,*6E
1491084430.68,5159,14.63,73780.8,-1.53,-32.85,-33.09,0,*6A
1491084431.94,5160,14.63,73776.3,-1.53,-32.79,-33.03,0,*69
1491084433.19,5161,14.63,73770.5,-1.59,-32.85,-32.97,0,*6D
1491084434.42,5162,14.63,73770.5,-1.55,-32.91,-33.09,0,*61
1491084435.68,5163,14.63,73768.0,-1.53,-32.79,-32.91,0,*60
1491084436.91,5164,14.63,73770.3,-1.55,-32.69,-32.97,0,*66
1491084438.15,5165,14.63,73764.8,-1.59,-32.57,-32.85,0,*65
1491084439.4,5166,14.63,73770.5,-1.51,-32.63,-32.85,0,*69
1491084440.64,5167,14.63,73772.5,-1.55,-32.75,-32.91,0,*6E
1491084441.87,5168,14.63,73768.0,-1.55,-32.69,-32.85,0,*69
1491084443.08,5169,14.63,73770.0,-1.55,-32.39,-32.69,0,*6F
1491084444.29,5170,14.63,73772.3,-1.55,-32.35,-32.51,0,*60
1491084445.52,5171,14.63,73770.5,-1.55,-32.51,-32.85,0,*6A
1491084446.78,5172,14.63,73770.0,-1.53,-32.51,-32.85,0,*6F
1491084448.05,5173,14.63,73770.5,-1.53,-32.45,-32.63,0,*63
1491084449.25,5174,14.63,73770.5,-1.55,-32.35,-32.57,0,*62
1491084450.5,5175,14.63,73774.3,-1.53,-32.29,-32.51,0,*6E
1491084451.73,5176,14.63,73768.5,-1.51,-32.19,-32.35,0,*6E
1491084452.97,5177,14.63,73758.3,-1.53,-32.13,-32.29,0,*6A
1491084454.26,5178,14.63,73762.0,-1.53,-31.73,-31.95,0,*64
1491084455.51,5179,14.63,73754.5,-1.53,-32.19,-32.35,0,*63
1491084456.77,5180,14.63,73762.3,-1.53,-32.45,-32.51,0,*6E
1491084458.02,5181,14.63,73770.0,-1.51,-32.45,-32.85,0,*64
1491084459.27,5182,14.63,73778.0,-1.53,-32.35,-32.63,0,*6A
1491084460.5,5183,14.63,73778.0,-1.51,-32.69,-32.85,0,*68
1491084461.75,5184,14.63,73770.0,-1.51,-32.29,-32.45,0,*67
1491084462.98,5185,14.63,73762.0,-1.51,-32.19,-32.51,0,*60
1491084464.24,5186,14.63,73764.8,-1.51,-32.63,-32.85,0,*67
1491084465.49,5187,14.63,73766.8,-1.51,-32.45,-32.79,0,*61
1491084466.71,5188,14.63,73770.5,-1.51,-32.35,-32.63,0,*62
1491084467.92,5189,14.63,73764.3,-1.51,-32.69,-32.91,0,*67
1491084469.14,5190,14.56,73766.3,-1.51,-32.91,-33.09,0,*68
1491084470.35,5191,14.63,73774.5,-1.51,-33.21,-33.37,0,*6E
1491084471.63,5192,14.63,73776.8,-1.53,-32.85,-33.09,0,*6D
1491084472.85,5193,14.63,73774.3,-1.51,-32.85,-33.03,0,*64
1491084474.05,5194,14.63,73774.3,-1.51,-32.91,-33.03,0,*66
1491084475.31,5195,14.56,73768.8,-1.53,-32.63,-32.91,0,*62
1491084476.53,5196,14.63,73776.0,-1.51,-32.35,-32.63,0,*6D
1491084477.77,5197,14.63,73782.3,-1.49,-32.23,-32.45,0,*66
1491084479.01,5198,14.63,73784.3,-1.51,-32.69,-32.85,0,*62
1491084480.26,5199,14.56,73782.8,-1.53,-32.79,-33.03,0,*6F
1491084481.49,5200,14.56,73786.5,-1.51,-32.85,-33.03,0,*6D
1491084482.74,5201,14.63,73784.5,-1.53,-32.85,-33.03,0,*6E
1491084484.0,5202,14.63,73788.3,-1.53,-32.63,-32.91,0,*6F
1491084485.28,5203,14.56,73786.3,-1.53,-32.63,-32.85,0,*6B
1491084486.53,5204,14.63,73792.8,-1.53,-32.85,-33.03,0,*6B
1491084487.79,5205,14.63,73806.3,-1.51,-32.85,-33.09,0,*62
1491084489.02,5206,14.63,73792.8,-1.51,-32.79,-32.91,0,*62
1491084490.28,5207,14.63,73784.3,-1.53,-32.51,-32.79,0,*6D
1491084491.53,5208,14.63,73782.0,-1.53,-32.51,-32.85,0,*61
1491084492.79,5209,14.63,73790.8,-1.51,-32.79,-32.85,0,*68
1491084494.05,5210,14.56,73790.3,-1.53,-32.79,-33.03,0,*6D
1491084495.24,5211,14.63,73800.5,-1.51,-32.91,-33.21,0,*68
1491084496.47,5212,14.63,73798.3,-1.51,-32.79,-33.03,0,*6D
1491084497.73,5213,14.56,73798.3,-1.53,-32.79,-32.91,0,*64
1491084498.96,5214,14.56,73798.5,-1.51,-32.85,-33.03,0,*68
1491084500.24,5215,14.63,73792.8,-1.53,-32.85,-33.09,0,*61
1491084501.49,5216,14.63,73782.0,-1.53,-32.51,-32.85,0,*6E
1491084502.75,5217,14.63,73790.3,-1.53,-32.51,-32.63,0,*67
1491084503.97,5218,14.63,73782.3,-1.51,-32.29,-32.51,0,*64
1491084505.23,5219,14.63,73784.3,-1.53,-32.51,-32.79,0,*62
1491084506.48,5220,14.56,73782.5,-1.51,-32.63,-32.85,0,*68